Weather History for Branson, MO

Change the Weather History Date:

Thursday, March 28, 2013

  Actual Average (KHRO) Record (KHRO)
Temperature  
Mean Temperature 54 °F 53 °F  
Max Temperature 66 °F 64 °F 85 °F (1963)
Min Temperature 42 °F 41 °F 19 °F (1947)
Degree Days  
Heating Degree Days 11 13  
Month to date heating degree days 471  
Since 1 July heating degree days 3643  
Cooling Degree Days 0 0  
Month to date cooling degree days 0  
Year to date cooling degree days 0  
Growing Degree Days 4 (Base 50)    
Moisture  
Dew Point 36 °F    
Average Humidity 54    
Maximum Humidity 66    
Minimum Humidity 37    
Precipitation  
Precipitation 0.00 in 0.14 in 1.62 in (1902)
Month to date precipitation 3.37  
Year to date precipitation 8.57  
Snow  
Snow 0.00 in 0.00 in T in (2009)
Month to date snowfall 2.0  
Since 1 July snowfall 11.2  
Snow Depth -    
Sea Level Pressure  
Sea Level Pressure 30.21 in    
Wind  
Wind Speed 9 mph (SE)    
Max Wind Speed 14 mph    
Max Gust Speed -    
Visibility 10 miles    
Events      
T = Trace of Precipitation, MM = Missing Value Source: NWS Daily Summary

Daily Weather History Graph

Daily Weather History Graph

Search for Another Location

Airport:

Trip Planner

Search our weather history database for the weather conditions in past years. The results will help you decide how hot, cold, wet, or windy it might be!

Date:

Astronomy

Mar. 28, 2013 Rise Set
Actual Time 7:04 AM CDT 7:31 PM CDT
Civil Twilight 6:38 AM CDT 7:57 PM CDT
Nautical Twilight 6:07 AM CDT 8:28 PM CDT
Astronomical Twilight 5:37 AM CDT 8:59 PM CDT
Moon 9:20 PM CDT 7:35 AM CDT
Length of Visible Light 13h 19m
Length of Day
12h 27m
Full, 98% of the Moon is Illuminated
Mar 28
Full
Apr 2
Last Quarter
Apr 10
New
Apr 18
First Quarter
Apr 25
Full

Hourly Weather History & Observations

Time (CDT) Temp. Windchill Dew Point Humidity Pressure Visibility Wind Dir Wind Speed Gust Speed Precip Events Conditions
12:15 AM 46.4 °F 40.4 °F 28.4 °F 50% 30.25 in 10.0 mi SE 13.8 mph - N/A   Overcast
12:35 AM 46.4 °F 40.4 °F 28.4 °F 50% 30.25 in 10.0 mi SE 13.8 mph - N/A   Overcast
12:55 AM 46.4 °F 40.4 °F 30.2 °F 53% 30.24 in 10.0 mi SE 13.8 mph - N/A   Overcast
1:15 AM 46.4 °F 40.7 °F 30.2 °F 53% 30.24 in 10.0 mi SE 12.7 mph - N/A   Overcast
1:35 AM 44.6 °F 38.1 °F 32.0 °F 61% 30.24 in 10.0 mi SE 13.8 mph - N/A   Overcast
1:55 AM 44.6 °F 39.2 °F 32.0 °F 61% 30.24 in 10.0 mi SSE 10.4 mph - N/A   Overcast
2:15 AM 44.6 °F 39.7 °F 32.0 °F 61% 30.23 in 10.0 mi SSE 9.2 mph - N/A   Overcast
2:35 AM 44.6 °F 39.7 °F 32.0 °F 61% 30.23 in 10.0 mi SE 9.2 mph - N/A   Overcast
2:55 AM 44.6 °F 40.2 °F 32.0 °F 61% 30.23 in 10.0 mi SE 8.1 mph - N/A   Overcast
3:15 AM 44.6 °F 42.2 °F 32.0 °F 61% 30.23 in 10.0 mi SE 4.6 mph - N/A   Overcast
3:35 AM 44.6 °F 40.7 °F 32.0 °F 61% 30.22 in 10.0 mi SE 6.9 mph - N/A   Overcast
3:55 AM 44.6 °F 41.4 °F 32.0 °F 61% 30.22 in 10.0 mi SE 5.8 mph - N/A   Overcast
4:15 AM 44.6 °F 41.4 °F 32.0 °F 61% 30.22 in 10.0 mi SE 5.8 mph - N/A   Overcast
4:35 AM 44.6 °F 40.7 °F 32.0 °F 61% 30.21 in 10.0 mi SE 6.9 mph - N/A   Overcast
4:55 AM 44.6 °F 40.7 °F 32.0 °F 61% 30.21 in 10.0 mi SE 6.9 mph - N/A   Overcast
5:15 AM 44.6 °F 42.2 °F 32.0 °F 61% 30.21 in 10.0 mi ESE 4.6 mph - N/A   Overcast
5:35 AM 44.6 °F 41.4 °F 32.0 °F 61% 30.22 in 10.0 mi East 5.8 mph - N/A   Overcast
5:55 AM 42.8 °F 39.3 °F 32.0 °F 66% 30.22 in 10.0 mi ESE 5.8 mph - N/A   Overcast
6:15 AM 42.8 °F 39.3 °F 32.0 °F 66% 30.22 in 10.0 mi ESE 5.8 mph - N/A   Overcast
6:35 AM 42.8 °F 38.6 °F 32.0 °F 66% 30.22 in 10.0 mi ESE 6.9 mph - N/A   Overcast
7:55 AM 42.8 °F 38.0 °F 32.0 °F 66% 30.23 in 10.0 mi ESE 8.1 mph - N/A   Overcast
8:53 AM 46.4 °F 41.9 °F 32.0 °F 57% 30.23 in 10.0 mi ESE 9.2 mph - N/A   Mostly Cloudy
9:45 AM 50.0 °F - 32.0 °F 50% 30.25 in 10.0 mi SE 5.8 mph - N/A   Scattered Clouds
10:50 AM 55.4 °F - 32.0 °F 41% 30.24 in 10.0 mi SE 8.1 mph - N/A   Scattered Clouds
11:55 AM 62.6 °F - 35.6 °F 37% 30.23 in 10.0 mi ESE 9.2 mph - N/A   Partly Cloudy
12:45 PM 64.4 °F - 37.4 °F 37% 30.21 in 10.0 mi ESE 5.8 mph - N/A   Scattered Clouds
1:45 PM 64.4 °F - 37.4 °F 37% 30.19 in 10.0 mi SE 8.1 mph - N/A   Mostly Cloudy
2:56 PM 64.4 °F - 39.2 °F 40% 30.17 in 10.0 mi SE 5.8 mph - N/A   Mostly Cloudy
3:55 PM 64.4 °F - 39.2 °F 40% 30.15 in 10.0 mi East 5.8 mph - N/A   Overcast
4:46 PM 66.2 °F - 39.2 °F 37% 30.14 in 10.0 mi East 5.8 mph - N/A   Mostly Cloudy
5:45 PM 66.2 °F - 41.0 °F 40% 30.14 in 10.0 mi East 6.9 mph - N/A   Mostly Cloudy
6:45 PM 62.6 °F - 39.2 °F 42% 30.14 in 10.0 mi SE 5.8 mph - N/A   Mostly Cloudy
7:50 PM 62.6 °F - 41.0 °F 45% 30.16 in 10.0 mi Calm Calm - N/A   Mostly Cloudy
8:45 PM 59.0 °F - 42.8 °F 55% 30.17 in 10.0 mi Calm Calm - N/A   Mostly Cloudy
9:15 PM 59.0 °F - 42.8 °F 55% 30.17 in 10.0 mi South 3.5 mph - N/A   Overcast
9:35 PM 59.0 °F - 42.8 °F 55% 30.18 in 10.0 mi Calm Calm - N/A   Overcast
9:55 PM 59.0 °F - 42.8 °F 55% 30.19 in 10.0 mi Calm Calm - N/A   Mostly Cloudy
10:15 PM 57.2 °F - 42.8 °F 59% 30.19 in 10.0 mi Calm Calm - N/A   Mostly Cloudy
10:35 PM 57.2 °F - 42.8 °F 59% 30.19 in 10.0 mi Calm Calm - N/A   Overcast
10:55 PM 59.0 °F - 42.8 °F 55% 30.19 in 10.0 mi Calm Calm - N/A   Overcast
11:15 PM 59.0 °F - 42.8 °F 55% 30.19 in 10.0 mi South 4.6 mph - N/A   Mostly Cloudy
11:35 PM 57.2 °F - 42.8 °F 59% 30.18 in 10.0 mi South 4.6 mph - N/A   Overcast
11:55 PM 57.2 °F - 42.8 °F 59% 30.18 in 10.0 mi South 5.8 mph - N/A   Overcast